Tracking 29510 objects as of 16-Sep-2024
HD Live streaming from Space Station
objects crossing your sky now

THORAD DELTA 1 DEB

Track THORAD DELTA 1 DEB now!
10-day predictions


NORAD ID: 42620
Int'l Code: 1974-089GM
Perigee: 1,469.9 km
Apogee: 1,702.4 km
Inclination: 101.1 °
Period: 117.7 minutes
Semi major axis: 7957 km
RCS: Unknown
Launch date: November 15, 1974
Source: United States (US)
Launch site: AIR FORCE WESTERN TEST RANGE (AFWTR)

Note: This is SATELLITE DEBRIS
Your satellite tracking list
Your tracking list is empty




NASA's NSSDC Master Catalog

Two Line Element Set (TLE):
1 42620U 74089GM  24256.05181563  .00000110  00000-0  13359-2 0  9995
2 42620 101.0973 281.3638 0146079 267.1698  91.2633 12.23108975468161
Source of the keplerian elements: AFSPC